Tracking 18796 objects as of 19-September-2017
HD Live streaming from Space Station
objects crossing your sky now

HELIOS-2A

Track HELIOS-2A now!
10-day predictions
HELIOS-2A is classified as:


NORAD ID: 28492
Int'l Code: 2004-049A
Perigee: 687.0 km
Apogee: 689.1 km
Inclination: 98.2 °
Period: 98.4 minutes
Semi major axis: 7059 km
RCS: Unknown
Launch date: December 18, 2004
Source: France (FR)
Launch site: FRENCH GUIANA (FRGUI)

Optical reconnaissance; independent military intelligence capability for the EU.
aabbcc
Your satellite tracking list
Your tracking list is empty





NASA's NSSDC Master Catalog

Two Line Element Set (TLE):
1 28492U 04049A   17260.06274926 0.00000200  00000-0  38384-4 0    09
2 28492  98.1595 195.9625 0001500  64.0501 295.9498 14.63803999    01
Source of the keplerian elements: McCants